STARLINK-36970, 68071

Orbit data source: Space-Track

STARLINK-36970, 68071 is a payload satellite owned by SpaceX/Seattle (US) in LEO that was launched on Wed, 04 Mar 2026 UTC via an FALCON 9 launch vehicle from the Air Force Eastern Test Range (AFETR). Payload-class satellites include a variety of spacecraft equipped with specific instruments for various scientific and technological missions. These include communications satellites like Starlink; space stations such as the ISS; scientific satellites like the Hubble; Earth observation satellites from companies like Planet Labs, Umbra, and HawkEye 360; GPS; miniature CubeSats for education and research; and military/defense satellites.

Loading next visibility...
Identifier
68071, 2026-042C
Orbit
LEO
Country
Flag of USUS
Related business
Manufacturer
SpaceX/Seattle
Mission
Operational Commercial Communications
Bus & Motor
STARLINK V2MO, Unknown motor
Mass
575 kg wet, ~530 kg dry
Launch date (UTC)
2026-03-04 (2 months ago)
Launch vehicle
FALCON 9
Launch site
Air Force Eastern Test Range (AFETR)
Object type
Payload
Rocket body
Debris
Shape & HBR
Box + 2 Pan, 17.7 m
Radar Cross Section
36.964 m²

Expand to show TLE details & history
Last TLE update: 6 hours ago

TLE from 6 hours ago
0 STARLINK-36970
1 68071U 26042C   26119.50002315 -.01845382  00000-0 -53606-1 0  9995
2 68071  53.1597 302.8715 0001120 108.0306 202.2061 15.38301639  5997
Epoch: 2026-04-29T12:00Z
TLE epoch observation values (Epoch: 2026-04-29T12:00:02.000Z)
Latitude
-37.86835°
Longitude
-130.00113°
Altitude
464.131 km
Speed
7.634 km/s
True Right ascension
17h 49m 52s
True Declination
-37° 41' 41"
Sunlit
Object was in full shadow at epoch
Visualization orbit readout
Latitude
Unknown
Longitude
Unknown
Altitude
Unknown
Speed
Unknown
Apparent Right ascension
Unknown
Apparent Declination
Unknown
Sunlit
N/A
Visualization observer readout
Local Sidereal Time
01:12:38
Azimuth
Unknown
Elevation
Unknown
Doppler factor
Unknown
Orbital elements
Apogee altitude
452.154 km
Perigee altitude
450.624 km
Semi-major axis
6,829.526 km
Eccentricity
0.00011
Inclination
53.1597°
RAAN
302.8715°
Arg. of periapsis
108.0306°
True anomaly
202.20125°
Mean anomaly
202.2061°
Eccentric anomaly
202.20367°
Mean motion
3.84554 °/min
Orbital period
93.61 mins
BSTAR
-0.053606
Loading maneuver chart data...
Computing Atmospheric mass density...
Loading historical data...
Loading historical data...
Loading historical data...
Loading historical data...
Loading historical data...
Loading historical data...
Loading historical data...

Documentation

Showing up to 5 results
|